Current weather by "City, St" or "zip code"  
 
Advertise Here

Current Conditions: Aurora, Aurora Municipal Airport, NE

Overcast


34.0 F

Last Updated on Feb 28 2021, 4:55 am CST
Humidity: 91%
Wind Speed: NW 10.4 mph
Barometer 29.86 in
Dewpoint: 31.8 F
Visibility: 10.00 mi
Precip: --
Heat Index: NA
Wind Chill: 26 F
Current conditions at:

Aurora, Aurora Municipal Airport, NE (KAUH)

Lat: 40.89389 Lon: 97.99444

Local Radar Image active severe weather and emergency alerts image image weather storm and storm spotter reports image weather observation monitoring service image
Local
Radar
Active
Alerts
Storm Reports Obs
Monitoring

Sign-up For Email & Text Message Weather Alert Notification Services


Advertise Here

Observation History for Aurora, Aurora Municipal Airport, NE


Time Wind
(mph)
Vis
(mi)
Weather Precip (in) Temperature (F) Relative
Humidity
Wind
Chill
(F)
Heat
Index
(F)
Pressure
Air Dwpt altimeter
(in)
sea level
(mb)
Rmks
4:55 am CST NW 10.4 10.00 Overcast -- 34.0 31.8 91% 26 NA 29.86 M
4:35 am CST NW 15.0 10.00 Mostly Cloudy -- 33.0 31.1 92% 23 NA 29.85 M
3:55 am CST NW 11.5 G 18.4 10.00 Fair -- 33.0 30.7 92% 24 NA 29.81 M
2:55 am CST NW 15.0 G 27.6 10.00 Mostly Cloudy -- 33.0 31.5 93% 23 NA 29.83 M
1:55 am CST NW 18.4 10.00 Partly Cloudy -- 32.0 31.1 95% 20 NA 29.83 M
1:35 am CST NW 15.0 G 19.6 10.00 Fair -- 33.0 31.1 92% 23 NA 29.82 M
12:55 am CST NW 12.7 10.00 Fair -- 34.0 32.0 93% 25 NA 29.81 M
12:35 am CST NW 8.1 10.00 Fair -- 34.0 32.0 92% 27 NA 29.79 M
11:55 pm CST NW 11.5 10.00 Fair -- 36.0 33.8 91% 28 NA 29.79 M
11:35 pm CST NW 11.5 10.00 Fair -- 37.0 33.8 90% 29 NA 29.78 M
10:55 pm CST NW 10.4 10.00 Fair -- 36.0 33.4 91% 28 NA 29.77 M
9:55 pm CST NW 11.5 10.00 Fair -- 37.0 34.2 88% 29 NA 29.73 M
8:55 pm CST N 0.0 7.00 Fair -- 36.0 34.3 95% NA NA 29.72 M
8:35 pm CST N 4.6 7.00 Fair -- 36.0 34.2 95% 32 NA 29.71 M
7:55 pm CST N 6.9 7.00 Fair -- 36.0 34.7 95% 30 NA 29.70 M
7:35 pm CST N 8.1 7.00 Fair -- 36.0 34.9 95% 30 NA 29.70 M
6:55 pm CST NW 9.2 10.00 Fair -- 37.0 35.8 94% 30 NA 29.68 M
6:35 pm CST NW 8.1 10.00 Fair -- 37.0 35.4 93% 31 NA 29.67 M
5:55 pm CST NW 9.2 10.00 Fair -- 41.0 37.8 90% 35 NA 29.66 M
4:55 pm CST NE 5.8 10.00 Fair -- 43.0 39.9 88% 39 NA 29.63 M
3:55 pm CST NW 4.6 10.00 Mostly Cloudy -- 43.0 39.6 87% 40 NA 29.66 M
2:55 pm CST E 4.6 10.00 Overcast -- 42.0 38.7 87% 39 NA 29.66 M
1:55 pm CST SE 11.5 10.00 Overcast -- 42.0 37.4 85% 36 NA 29.67 M
12:55 pm CST E 19.6 G 26.5 10.00 Mostly Cloudy -- 45.0 37.8 77% 37 NA 29.70 M

Regional Weather Observation


Aurora, Aurora Municipal Airport, NE (KAUH)

Overcast
34.0 F

Albion Municipal Airport, NE (KBVN)

Overcast
34.0 F

Hastings, Hastings Municipal Airport, NE (KHSI)

Mostly Cloudy
32.0 F

York, York Municipal Airport, NE (KJYR)

Fair
-18.0 F

Ord, Evelyn Sharp Field Airport, NE (KODX)

Overcast
34.0 F

Columbus, Columbus Municipal Airport, NE (KOLU)

Overcast
34.0 F
Advertise Here

Advertise Here